Flag for Netherlands Weather past 2 weeks in Apeldoorn, Netherlands

Now
54 °F

Broken clouds.


Feels Like: 50 °F
Forecast: 39 / 65 °F
Wind: 10 mph from Northeast

Location: Deelen

Current Time: May 23, 2015 at 2:42:32 PM

Latest Report: May 23, 2015 at 1:55 PM


Visibility: N/A

Pressure: 30.18 "Hg

Humidity: 88%

Dew point: 50 °F

Location of ApeldoornLocation

Historic Weather in Apeldoorn — Graph

°F

Apeldoorn temperature yesterday

Maximum temperature yesterday: 66 °F (at 12:55 PM)
Minimum temperature yesterday: 46 °F (at 5:25 AM)
Average temperature yesterday: 58 °F

Past Weeks' High & Low Weather Summary

 TemperatureHumidityPressure
High77 °F (May 11, 2:55 PM)100% (May 13, 4:55 AM)30.33 "Hg (May 13, 4:55 AM)
Low34 °F (May 21, 5:55 AM)34% (May 11, 3:25 PM)29.59 "Hg (May 19, 2:25 AM)
Average54 °F71%30.05 "Hg
* Reported May 8 1:25 PM — May 23 1:25 PM, Apeldoorn, Weather by CustomWeather, © 2015

Note: Actual official high and low records may vary slightly from our data, if they occured in-between our weather recording intervals... More about our weather records

Advertising

Apeldoorn weather history for previous 24 hours

 ConditionsComfort  
Time TempWeatherWind HumidityBarometerVisibility
1:25 PM
Sat, May 23
52 °FMostly cloudy.13 mph94%30.21 "HgN/A
12:55 PM52 °FMostly cloudy.13 mph100%30.21 "HgN/A
12:25 PM54 °FDrizzle. Mostly cloudy.10 mph94%30.18 "HgN/A
11:55 AM54 °FDrizzle. Broken clouds.13 mph94%30.18 "Hg3 mi
11:25 AM55 °FDrizzle. Broken clouds.8 mph94%30.18 "Hg3 mi
10:55 AM55 °FDrizzle. Overcast.9 mph94%30.18 "Hg3 mi
10:25 AM57 °FOvercast.7 mph82%30.18 "Hg5 mi
9:55 AM59 °FMore clouds than sun.3 mph77%30.18 "Hg6 mi
9:25 AM57 °FFog.3 mph82%30.18 "Hg6 mi
8:55 AM57 °FMostly cloudy.3 mph77%30.15 "HgN/A
8:25 AM55 °FFog.2 mph82%30.15 "Hg6 mi
7:55 AM54 °FMostly cloudy.2 mph82%30.15 "HgN/A
7:25 AM54 °FOvercast.1 mph82%30.15 "HgN/A
6:55 AM54 °FMostly cloudy.1 mph82%30.15 "HgN/A
6:25 AM52 °FOvercast.1 mph88%30.15 "HgN/A
5:55 AM52 °FOvercast.2 mph88%30.15 "HgN/A
5:25 AM54 °FPassing clouds.3 mph82%30.15 "HgN/A
4:55 AM54 °FOvercast.2 mph82%30.15 "HgN/A
4:25 AM52 °FOvercast.1 mph88%30.18 "HgN/A
3:55 AM54 °FOvercast.2 mph82%30.18 "HgN/A
3:25 AM52 °FOvercast.1 mph94%30.18 "HgN/A
2:55 AM54 °FOvercast.1 mph82%30.18 "HgN/A
2:25 AM54 °FOvercast.1 mph82%30.18 "HgN/A
1:55 AM54 °FOvercast.No wind82%30.18 "HgN/A
1:25 AM54 °FOvercast.1 mph82%30.18 "HgN/A
12:55 AM55 °FOvercast.1 mph77%30.18 "HgN/A
12:25 AM54 °FOvercast.2 mph88%30.21 "HgN/A
11:55 PM
Fri, May 22
55 °FOvercast.1 mph77%30.21 "HgN/A
10:55 PM57 °FOvercast.2 mph77%30.21 "HgN/A
10:25 PM57 °FOvercast.3 mph67%30.21 "HgN/A
9:55 PM57 °FOvercast.3 mph72%30.21 "HgN/A
9:25 PM59 °FOvercast.5 mph68%30.21 "HgN/A
8:55 PM61 °FOvercast.5 mph59%30.21 "HgN/A
8:25 PM63 °FMostly cloudy.8 mph59%30.21 "HgN/A
7:55 PM63 °FOvercast.9 mph59%30.21 "HgN/A
7:25 PM63 °FOvercast.10 mph59%30.18 "HgN/A
6:55 PM64 °FOvercast.7 mph56%30.21 "HgN/A
6:25 PM64 °FOvercast.7 mph52%30.21 "HgN/A
5:55 PM64 °FPartly sunny.8 mph52%30.21 "HgN/A
5:25 PM66 °FOvercast.7 mph52%30.21 "HgN/A
4:55 PM66 °FMostly cloudy.6 mph49%30.21 "HgN/A
4:25 PM64 °FOvercast.8 mph52%30.21 "HgN/A
3:55 PM66 °FMostly cloudy.8 mph49%30.21 "HgN/A
3:25 PM66 °FPartly sunny.8 mph46%30.21 "HgN/A
2:55 PM66 °FOvercast.8 mph49%30.24 "HgN/A
2:25 PM66 °FBroken clouds.9 mph46%30.24 "HgN/A
Weather by CustomWeather, © 2015

See weather overviewHow to use our weather pages